Portada
METAR-TAF:

METAR-TAF

Aeroports :

Tena, Equador

latitud: 01-03-35S, longitud: 77-35-00W, altitud: 376 m

Observació

L'informe es va fer fa 11 hores i 35 minuts, a les 23:00 UTC
Vent 2 kt del Est
Temperatura 27°C
Humitat 84%
Pressió 1007 hPa
Visibilitat 10 km o més
Núvols disperses a una alçada de 2600 ft
Cel ennuvolat a una alçada de 30000 ft

METAR: SEJD 112300Z 10002KT 9999 SCT026 BKN300 27/24 Q1007 RMK A2976

Hora: 05:35 (10:35 UTC)


TAF: manca

Observacions i pronòstics meteorològics de més de 4000 aeroports (METAR i TAF).

Les estacions disponibles són els punts grocs i vermells al mapa.

Posi el ratolí al punt desitjat per veure el nom de l'estació.

Feu clic per veure les observacions i els pronòstics meteorològics.

Per canviar el mapa: feu clic els botons verds amb una creu de color negre per apropar; al botó verd amb un guió per allunyar la imatge; o en les fletxes verdes per a mapes adjacents.


METAR-TAF: